| time (UTC) | temp F | wind direction | speed knots | gust knots | rain 1hr in | rain 24hr in | rain mn in | humidity % | barometer mb |
| 20260508013011 | 49 | 290 | 4.3 | 12.2 | 0.00 | 0.00 | 0.00 | 78 | 1016.7 |
| 20260508011514 | 49 | 275 | 7.0 | 13.0 | 0.00 | 0.00 | 0.00 | 78 | 1016.7 |
| 20260508010008 | 48 | 312 | 5.2 | 9.6 | 0.00 | 0.00 | 0.00 | 79 | 1017.0 |
| 20260508004506 | 48 | 180 | 2.6 | 13.0 | 0.00 | 0.00 | 0.00 | 82 | 1017.2 |
| 20260508003006 | 47 | 180 | 4.3 | 8.7 | 0.00 | 0.00 | 0.00 | 81 | 1017.1 |
| 20260508001513 | 48 | 292 | 4.3 | 10.4 | 0.00 | 0.00 | 0.00 | 81 | 1017.2 |
| 20260508000002 | 47 | 258 | 3.5 | 9.6 | 0.00 | 0.00 | 0.00 | 82 | 1017.2 |
| 20260507234602 | 47 | 301 | 2.6 | 7.0 | 0.00 | 0.00 | 0.00 | 83 | 1017.3 |
| 20260507233059 | 46 | 345 | 3.5 | 8.7 | 0.00 | 0.00 | 0.00 | 83 | 1017.4 |
| 20260507231557 | 45 | 180 | 2.6 | 8.7 | 0.00 | 0.00 | 0.00 | 85 | 1017.4 |
| 20260507230054 | 44 | 262 | 3.5 | 8.7 | 0.00 | 0.00 | 0.00 | 88 | 1017.4 |
| 20260507224551 | 43 | 180 | 2.6 | 9.6 | 0.00 | 0.00 | 0.00 | 88 | 1017.3 |
| 20260507223047 | 43 | 180 | 4.3 | 11.3 | 0.00 | 0.00 | 0.00 | 87 | 1017.0 |
| 20260507221549 | 42 | 180 | 6.1 | 12.2 | 0.00 | 0.00 | 0.00 | 88 | 1016.9 |
| 20260507220049 | 42 | 180 | 4.3 | 9.6 | 0.00 | 0.00 | 0.00 | 89 | 1016.8 |
| 20260507214549 | 41 | 180 | 3.5 | 7.0 | 0.00 | 0.00 | 0.00 | 90 | 1016.8 |
| 20260507213055 | 40 | 180 | 2.6 | 7.0 | 0.00 | 0.00 | 0.00 | 91 | 1016.9 |
| 20260507211553 | 40 | 180 | 2.6 | 9.6 | 0.00 | 0.00 | 0.00 | 91 | 1016.6 |
| 20260507210047 | 40 | 180 | 3.5 | 8.7 | 0.00 | 0.00 | 0.00 | 90 | 1016.5 |
| 20260507204548 | 40 | 180 | 4.3 | 9.6 | 0.00 | 0.00 | 0.00 | 90 | 1016.0 |
| 20260507203047 | 40 | 180 | 4.3 | 10.4 | 0.00 | 0.00 | 0.00 | 90 | 1015.8 |
| 20260507201548 | 40 | 180 | 5.2 | 10.4 | 0.00 | 0.00 | 0.00 | 89 | 1015.6 |
| 20260507200046 | 40 | 180 | 1.7 | 5.2 | 0.00 | 0.00 | 0.00 | 89 | 1015.6 |
| 20260507194544 | 40 | 180 | 3.5 | 8.7 | 0.00 | 0.00 | 0.00 | 89 | 1015.7 |
| 20260507193045 | 39 | 180 | 1.7 | 4.3 | 0.00 | 0.00 | 0.00 | 89 | 1016.0 |
| 20260507191604 | 39 | 180 | 1.7 | 4.3 | 0.00 | 0.00 | 0.00 | 89 | 1016.0 |
| 20260507190059 | 39 | 180 | 1.7 | 4.3 | 0.00 | 0.00 | 0.00 | 88 | 1016.1 |
| 20260507184558 | 39 | 180 | 0.9 | 3.5 | 0.00 | 0.00 | 0.00 | 87 | 1016.4 |
| 20260507183106 | 39 | 180 | 0.0 | 4.3 | 0.00 | 0.00 | 0.00 | 86 | 1016.5 |
| 20260507181543 | 40 | 180 | 0.0 | 3.5 | 0.00 | 0.00 | 0.00 | 85 | 1016.6 |
| 20260507180049 | 40 | 180 | 0.9 | 4.3 | 0.00 | 0.00 | 0.00 | 85 | 1016.0 |
| 20260507174542 | 39 | 180 | 1.7 | 4.3 | 0.00 | 0.00 | 0.00 | 84 | 1016.0 |
| 20260507173055 | 39 | 180 | 1.7 | 4.3 | 0.00 | 0.00 | 0.00 | 83 | 1016.0 |
| 20260507171539 | 39 | 180 | 1.7 | 4.3 | 0.00 | 0.01 | 0.00 | 82 | 1016.1 |
| 20260507170048 | 39 | 180 | 0.0 | 2.6 | 0.00 | 0.01 | 0.00 | 82 | 1016.2 |
| 20260507164538 | 39 | 180 | 0.9 | 5.2 | 0.00 | 0.01 | 0.00 | 82 | 1016.4 |
| 20260507163037 | 39 | 180 | 1.7 | 4.3 | 0.00 | 0.01 | 0.00 | 82 | 1016.2 |
| 20260507161539 | 39 | 180 | 2.6 | 4.3 | 0.00 | 0.01 | 0.00 | 82 | 1016.4 |
| 20260507160037 | 39 | 180 | 1.7 | 7.0 | 0.00 | 0.01 | 0.00 | 82 | 1016.4 |
| 20260507154537 | 39 | 180 | 2.6 | 7.0 | 0.00 | 0.01 | 0.00 | 83 | 1016.5 |
| 20260507153036 | 39 | 180 | 3.5 | 7.0 | 0.00 | 0.01 | 0.00 | 83 | 1016.6 |
| 20260507151537 | 38 | 180 | 2.6 | 7.0 | 0.00 | 0.01 | 0.00 | 83 | 1016.9 |
| 20260507150036 | 38 | 180 | 2.6 | 7.0 | 0.00 | 0.01 | 0.00 | 81 | 1016.7 |
| 20260507144534 | 39 | 180 | 3.5 | 10.4 | 0.00 | 0.01 | 0.00 | 80 | 1016.6 |
| 20260507143033 | 39 | 180 | 7.8 | 12.2 | 0.00 | 0.01 | 0.00 | 79 | 1016.5 |
| 20260507141536 | 38 | 180 | 5.2 | 9.6 | 0.00 | 0.01 | 0.00 | 79 | 1016.8 |
| 20260507140036 | 39 | 180 | 6.1 | 9.6 | 0.00 | 0.01 | 0.00 | 78 | 1016.9 |
| 20260507134530 | 38 | 180 | 3.5 | 8.7 | 0.00 | 0.01 | 0.00 | 78 | 1017.0 |
| 20260507133030 | 38 | 180 | 3.5 | 7.8 | 0.00 | 0.01 | 0.00 | 77 | 1017.4 |
| 20260507131531 | 39 | 180 | 2.6 | 5.2 | 0.00 | 0.01 | 0.00 | 77 | 1017.2 |
| 20260507130034 | 39 | 180 | 0.9 | 4.3 | 0.00 | 0.01 | 0.00 | 76 | 1017.4 |
| 20260507124528 | 39 | 180 | 2.6 | 7.0 | 0.00 | 0.01 | 0.00 | 77 | 1017.6 |
| 20260507123028 | 39 | 180 | 3.5 | 9.6 | 0.00 | 0.01 | 0.00 | 77 | 1017.7 |
| 20260507121524 | 39 | 180 | 4.3 | 8.7 | 0.00 | 0.01 | 0.00 | 78 | 1017.6 |
| 20260507120022 | 39 | 180 | 3.5 | 7.8 | 0.00 | 0.01 | 0.00 | 77 | 1017.6 |
| 20260507114521 | 39 | 180 | 3.5 | 9.6 | 0.00 | 0.01 | 0.00 | 77 | 1017.7 |
| 20260507113025 | 39 | 180 | 4.3 | 8.7 | 0.00 | 0.01 | 0.00 | 76 | 1017.5 |
| 20260507111520 | 40 | 180 | 4.3 | 10.4 | 0.00 | 0.01 | 0.00 | 76 | 1017.1 |
| 20260507110017 | 40 | 180 | 7.0 | 11.3 | 0.00 | 0.01 | 0.00 | 76 | 1017.4 |
| 20260507104515 | 40 | 180 | 6.1 | 9.6 | 0.00 | 0.01 | 0.00 | 77 | 1017.1 |
| 20260507103014 | 40 | 180 | 5.2 | 10.4 | 0.00 | 0.01 | 0.00 | 77 | 1016.9 |
| 20260507101513 | 40 | 180 | 5.2 | 8.7 | 0.00 | 0.01 | 0.00 | 76 | 1016.9 |
| 20260507100015 | 40 | 180 | 4.3 | 8.7 | 0.00 | 0.01 | 0.00 | 76 | 1017.1 |
| 20260507094510 | 40 | 180 | 3.5 | 7.8 | 0.00 | 0.01 | 0.00 | 76 | 1017.1 |
| 20260507093014 | 40 | 180 | 3.5 | 8.7 | 0.00 | 0.01 | 0.00 | 76 | 1016.9 |
| 20260507091508 | 40 | 180 | 2.6 | 7.0 | 0.00 | 0.01 | 0.00 | 75 | 1016.8 |
| 20260507090006 | 41 | 180 | 2.6 | 5.2 | 0.00 | 0.01 | 0.00 | 72 | 1016.6 |
| 20260507084512 | 41 | 180 | 1.7 | 7.0 | 0.00 | 0.01 | 0.00 | 70 | 1016.4 |
| 20260507083001 | 42 | 180 | 2.6 | 8.7 | 0.00 | 0.01 | 0.00 | 69 | 1016.6 |
| 20260507080056 | 43 | 180 | 4.3 | 9.6 | 0.00 | 0.01 | 0.00 | 66 | 1016.2 |
| 20260507074600 | 43 | 180 | 2.6 | 7.0 | 0.00 | 0.01 | 0.00 | 64 | 1015.9 |
| 20260507073052 | 43 | 180 | 2.6 | 5.2 | 0.00 | 0.01 | 0.00 | 62 | 1015.6 |
| 20260507064553 | 43 | 180 | 7.0 | 10.4 | 0.00 | 0.01 | 0.00 | 61 | 1014.6 |
| 20260507063047 | 44 | 180 | 6.1 | 14.8 | 0.00 | 0.01 | 0.00 | 58 | 1014.3 |
| 20260507060044 | 46 | 180 | 7.8 | 12.2 | 0.00 | 0.01 | 0.00 | 53 | 1014.1 |
| 20260507054602 | 47 | 180 | 7.0 | 11.3 | 0.00 | 0.01 | 0.00 | 52 | 1013.9 |
| 20260507053043 | 46 | 180 | 5.2 | 13.9 | 0.00 | 0.01 | 0.00 | 53 | 1013.8 |
| 20260507050047 | 47 | 239 | 7.8 | 15.6 | 0.00 | 0.01 | 0.00 | 49 | 1013.3 |
| 20260507044540 | 48 | 276 | 7.8 | 15.6 | 0.00 | 0.01 | 0.00 | 49 | 1013.0 |
| 20260507043036 | 48 | 249 | 7.8 | 13.9 | 0.00 | 0.01 | 0.00 | 47 | 1012.7 |
| 20260507040039 | 48 | 246 | 4.3 | 12.2 | 0.00 | 0.01 | 0.00 | 48 | 1012.5 |
| 20260507034533 | 47 | 180 | 7.0 | 15.6 | 0.00 | 0.01 | 0.00 | 48 | 1012.5 |
| 20260507033034 | 48 | 241 | 6.1 | 17.4 | 0.00 | 0.01 | 0.00 | 50 | 1012.4 |
| 20260507030033 | 48 | 193 | 6.1 | 17.4 | 0.00 | 0.01 | 0.00 | 46 | 1012.1 |
| 20260507024535 | 47 | 294 | 4.3 | 11.3 | 0.00 | 0.01 | 0.00 | 52 | 1012.2 |
| 20260507023030 | 46 | 180 | 5.2 | 15.6 | 0.00 | 0.01 | 0.00 | 53 | 1012.2 |
| 20260507020030 | 47 | 307 | 7.8 | 14.8 | 0.00 | 0.01 | 0.00 | 53 | 1012.3 |
| 20260507014530 | 46 | 180 | 7.8 | 12.2 | 0.00 | 0.01 | 0.00 | 53 | 1012.5 |